Probability
3 3 3 3 3 3 3 3 3 3 3 3 2 1 2 3 3 1 0 0 0 0 3 11 15 12 8 9 15 29 51 72 85 92 92 88 75 53 33 20 12 7 5 5
1 2 2 2 2 3 3 3 3 3 3 3 2 2 2 2 2 2 1 0 0 0 6 18 23 19 17 18 23 35 56 76 89 94 94 90 76 55 39 27 16 10 8 7
0 1 1 1 1 1 2 3 2 3 3 3 3 2 2 1 2 3 2 1 0 0 8 22 28 28 30 32 32 41 58 76 87 90 88 83 72 57 45 33 21 17 17 15
0 0 0 0 0 1 1 1 1 1 2 2 2 1 0 1 1 2 2 1 0 1 7 20 28 30 33 34 33 38 53 68 74 74 70 65 58 49 39 29 22 23 27 28
0 0 0 0 0 0 0 0 0 0 1 1 1 0 0 0 1 1 1 0 0 1 6 18 27 29 29 27 26 32 44 53 53 50 47 44 38 32 26 20 18 25 34 37
0 0 0 0 0 0 0 1 1 0 0 0 0 0 0 0 0 0 0 0 0 1 6 16 27 31 29 23 21 24 31 35 32 28 27 25 23 21 18 15 16 24 35 40
0 0 0 0 0 0 0 1 2 1 0 0 0 0 0 0 0 0 0 0 1 3 7 16 28 32 25 17 14 15 18 19 16 13 13 15 17 17 16 16 17 23 31 35
0 0 0 0 0 0 0 1 2 1 0 0 0 0 0 0 0 0 0 1 3 4 8 15 22 23 15 8 6 7 10 11 9 6 6 10 14 14 14 16 18 20 21 21
0 0 0 0 0 0 0 1 1 1 0 0 0 0 0 0 0 0 1 2 3 4 6 9 12 12 8 5 5 7 12 14 11 7 4 5 9 12 12 13 17 16 12 11
0 0 0 0 0 0 1 1 1 1 0 0 0 0 0 0 0 0 1 2 3 3 4 4 5 6 7 10 11 14 21 25 20 11 7 6 7 10 10 10 12 11 8 8
0 0 0 0 0 0 1 2 1 0 0 0 0 1 0 0 0 0 0 1 1 2 3 3 3 4 7 12 19 28 37 38 30 19 15 14 12 11 10 8 7 7 6 7
0 0 0 0 0 0 0 1 1 0 0 0 0 0 0 0 0 0 0 0 0 1 1 2 2 3 5 10 21 39 53 54 45 32 26 27 25 19 13 9 8 7 5 5
0 0 0 0 0 0 0 0 0 0 0 0 0 0 0 0 0 0 0 0 0 0 0 1 2 3 4 7 16 34 55 64 61 50 41 41 41 34 24 17 13 9 5 4
0 0 0 0 0 0 0 0 0 0 0 0 0 0 0 0 0 0 0 0 1 1 1 2 3 4 4 6 11 25 44 62 70 67 59 53 50 49 41 29 22 14 6 3
0 0 0 0 0 0 0 0 0 0 0 0 0 0 0 0 0 0 0 1 2 3 4 5 4 5 5 9 16 27 42 57 67 73 71 62 58 63 60 47 37 28 15 9
0 0 0 0 0 0 0 0 0 0 0 0 0 0 0 0 0 0 0 2 4 5 8 9 9 9 11 15 23 35 46 55 63 70 75 73 70 77 79 69 58 49 38 27
0 0 0 0 0 0 0 0 0 0 0 0 0 0 0 0 0 0 0 2 5 7 11 13 14 16 18 21 25 31 39 47 54 62 73 80 81 87 91 84 73 67 58 47
0 0 0 0 0 0 0 0 0 0 0 0 0 0 0 0 0 0 0 1 3 6 10 12 12 14 16 17 18 20 26 33 40 50 63 74 79 85 88 83 73 65 57 50
0 0 0 0 0 0 0 0 0 0 0 0 0 0 0 0 0 0 0 0 1 2 5 5 4 5 7 7 8 10 13 18 23 32 42 53 61 66 70 66 56 47 41 38
0 0 0 0 0 0 0 0 0 0 0 0 0 0 0 0 0 0 0 0 0 0 1 1 0 0 1 1 1 2 4 6 9 12 18 25 31 37 40 38 32 28 26 23
0 0 0 0 0 0 0 0 0 0 0 0 0 0 0 0 0 0 0 0 0 0 0 0 0 0 0 0 0 0 0 1 1 1 3 6 8 11 14 14 13 14 14 13
0 0 0 0 0 0 0 0 0 0 0 0 0 0 0 0 0 0 0 0 0 0 0 0 0 0 0 0 0 0 0 0 0 0 0 0 0 1 2 2 3 4 5 5
0 0 0 0 0 0 0 0 0 0 0 0 0 0 0 0 0 0 0 0 0 0 0 0 0 0 0 0 0 0 0 0 0 0 0 0 0 0 0 0 0 0 1 1
0 0 0 0 0 0 0 0 0 0 0 0 0 0 0 0 0 0 0 0 0 0 0 0 0 0 0 0 0 0 0 0 0 0 0 0 0 0 0 0 0 0 0 0
0 0 0 0 0 0 0 0 0 0 0 0 0 0 0 0 0 0 0 0 0 0 0 0 0 0 0 0 0 0 0 0 0 0 0 0 0 0 0 0 0 0 0 0
0 0 0 0 0 0 0 0 0 0 0 0 0 0 0 0 0 0 0 0 0 0 0 0 0 0 0 0 0 0 0 0 0 0 0 0 0 0 0 0 0 0 0 0
Wind_Speed
5 6 6 8 8 9 12 14 15 10 6 7 8 12 13 11 7 6 7 8 8 5 4 5 8 6 4 4 3 5 7 8 6 5 4 4 3 2 2 3 5 4 3 3
5 7 5 5 7 10 12 14 14 10 7 7 10 14 15 12 10 8 9 9 7 3 1 6 6 6 4 5 3 3 4 6 7 6 5 4 4 3 2 3 3 4 3 2
8 4 2 5 9 10 10 7 7 8 9 5 8 12 14 14 14 13 10 7 5 3 3 7 5 6 6 5 4 3 3 5 6 6 4 3 3 2 2 2 2 3 5 4
8 6 5 7 9 8 8 3 4 5 5 5 3 8 10 12 11 11 9 7 6 5 5 8 8 8 7 7 5 4 4 4 5 6 5 5 5 4 5 4 4 4 5 5
9 7 7 9 9 7 5 2 4 5 5 7 8 8 9 9 8 7 6 6 7 7 7 9 9 8 9 8 5 5 6 6 5 4 5 4 4 4 4 4 6 6 5 5
15 12 11 10 7 6 4 6 7 7 6 9 10 9 8 5 4 4 3 3 4 6 8 10 10 9 9 8 6 6 6 6 4 4 5 6 5 5 4 4 4 4 3 3
15 13 9 6 6 6 7 7 5 5 5 6 4 6 7 4 2 2 1 3 6 7 8 10 11 9 8 8 7 6 6 6 5 5 6 7 6 5 5 4 4 4 3 3
14 12 6 2 5 7 9 10 7 6 5 4 2 7 5 3 2 2 2 5 7 8 9 10 11 9 8 8 7 7 7 6 5 3 3 3 7 3 3 4 4 4 4 5
11 12 15 14 11 9 11 11 11 11 12 12 8 9 3 2 3 2 2 6 6 7 8 9 9 9 9 9 8 7 8 7 6 5 2 0 3 5 4 3 4 3 4 4
13 18 16 16 16 11 12 12 7 5 6 8 7 1 6 9 11 8 5 3 4 4 5 5 7 8 8 9 8 7 8 7 7 6 4 3 1 2 2 1 2 3 3 3
15 14 15 15 14 13 10 9 8 5 5 4 4 2 6 11 14 14 10 9 7 5 3 1 0 4 6 8 8 7 7 7 7 6 6 6 4 3 3 2 2 3 3 3
11 10 12 15 12 12 7 6 5 4 5 3 2 1 7 10 12 14 11 9 6 3 1 2 2 5 5 6 8 8 8 7 7 6 6 7 6 5 4 4 4 3 3 4
10 8 12 11 8 12 10 11 10 6 3 1 1 2 9 12 14 14 13 10 7 5 4 1 3 3 4 4 5 6 8 9 8 6 5 6 6 6 5 4 4 4 4 5
7 9 9 10 10 7 8 12 11 7 3 2 2 5 10 13 15 15 13 11 9 7 6 5 2 1 2 2 2 4 6 7 8 8 6 5 5 5 5 4 4 4 4 5
9 10 12 12 9 6 9 10 9 7 4 1 2 7 11 11 11 12 13 12 10 7 6 5 3 1 1 1 1 0 1 3 7 8 6 5 4 5 5 4 4 5 4 3
9 11 14 13 10 7 6 13 9 7 8 7 8 8 13 13 12 13 15 14 11 8 7 6 5 4 3 3 3 3 2 1 3 5 5 5 3 4 4 3 3 4 4 2
9 12 12 10 11 6 8 15 15 14 15 12 13 12 15 16 15 15 16 16 14 12 12 11 10 9 9 7 4 3 2 3 3 3 4 4 3 3 3 2 3 3 3 4
10 10 6 8 9 6 5 9 11 10 16 19 17 18 19 18 10 13 17 16 15 14 13 12 10 11 10 9 7 6 7 6 7 7 6 4 2 2 1 2 3 3 3 3
10 8 6 5 6 4 6 11 13 7 8 18 19 20 21 22 12 13 19 15 11 10 9 8 8 9 9 9 8 8 9 10 10 9 8 6 5 4 2 2 3 3 3 3
10 8 5 5 5 5 7 16 18 5 4 16 18 18 19 19 13 12 18 13 9 7 6 7 7 8 8 8 9 10 10 9 8 7 6 6 5 4 3 3 3 3 2 3
11 8 8 7 4 2 6 14 11 7 7 14 15 16 16 13 11 15 16 10 6 5 6 6 6 6 6 7 8 9 8 6 5 5 5 5 4 4 3 3 3 2 2 2
9 8 8 7 6 4 10 10 8 6 8 11 13 14 15 15 15 15 14 9 4 3 4 5 4 4 5 6 6 6 5 4 3 3 4 4 4 4 4 3 3 3 2 2
6 6 5 5 3 4 5 5 6 6 9 10 12 14 15 15 15 15 13 10 3 2 2 2 1 2 4 5 5 4 3 3 2 3 3 3 4 4 5 4 4 3 3 2
4 5 4 3 3 7 5 8 9 9 9 11 12 13 14 14 15 14 13 10 5 1 2 1 2 0 3 3 3 4 3 4 2 2 2 3 5 5 5 5 5 4 4 4
3 3 4 4 6 6 7 11 11 11 11 12 12 13 13 14 14 13 12 11 6 1 2 1 2 1 2 3 3 4 3 5 4 3 4 5 4 4 4 5 5 5 5 4
1 1 3 3 7 7 9 10 11 11 12 12 13 14 13 12 13 12 11 10 7 3 2 2 3 3 0 2 3 4 2 3 4 4 4 3 2 2 2 3 4 8 8 10
Wind_Direction
224 249 260 274 284 278 283 288 288 294 351 328 286 278 276 272 258 246 252 256 254 256 255 152 130 128 144 148 161 156 154 162 148 143 144 149 165 163 158 161 176 186 190 186
264 259 294 309 295 284 281 285 293 311 351 341 311 293 286 278 268 251 250 257 261 290 12 98 114 136 143 118 116 121 142 145 142 144 153 159 165 187 186 167 174 166 188 203
279 283 296 289 289 288 286 297 311 313 317 298 304 288 277 274 267 260 251 247 249 239 179 140 138 120 109 107 101 87 83 113 125 133 134 144 149 182 200 188 192 186 189 192
270 259 249 265 271 273 278 299 304 308 311 299 294 288 282 283 272 262 249 236 225 208 171 140 134 124 122 112 110 122 108 104 116 130 149 165 173 185 198 193 195 203 198 189
281 271 256 263 268 266 270 240 253 263 266 272 256 261 271 261 256 256 242 214 210 185 156 140 139 136 129 123 125 119 117 116 123 143 155 173 188 192 194 191 197 200 203 195
268 262 251 261 271 255 213 231 241 244 246 256 244 233 269 265 250 259 224 194 181 156 150 142 134 125 118 118 118 117 122 122 134 152 166 187 194 186 184 187 197 197 192 196
306 287 254 220 247 241 229 248 264 250 230 256 288 244 251 249 256 274 249 158 153 149 148 138 130 126 130 136 138 134 127 133 156 185 197 188 177 181 190 187 193 189 191 201
312 311 342 331 274 279 253 248 249 271 274 284 278 261 276 273 231 208 165 136 145 148 139 136 141 144 147 149 150 149 148 153 163 202 237 177 154 168 179 178 178 186 190 201
323 312 321 319 306 289 282 264 266 275 273 272 240 223 203 315 323 348 119 127 137 141 140 145 148 154 155 157 163 164 158 157 162 190 208 8 132 157 167 184 176 166 180 189
320 309 305 308 301 283 270 278 274 254 269 267 274 324 17 9 351 355 18 83 116 132 142 151 157 166 164 160 165 169 162 161 170 180 172 140 138 139 132 148 148 162 178 156
319 304 304 303 298 304 310 298 289 276 257 268 294 40 15 356 353 351 9 18 28 31 23 18 233 178 182 167 165 168 165 167 176 181 168 152 186 174 166 174 173 166 166 161
341 319 304 301 310 355 353 327 318 295 274 289 307 44 30 356 349 339 354 8 11 357 280 169 213 231 206 176 172 172 175 180 180 185 175 167 174 161 175 189 179 179 172 171
337 314 313 315 336 15 360 329 325 320 300 294 291 41 13 355 346 340 342 344 341 327 323 298 182 208 210 186 183 179 183 185 177 180 189 161 162 168 182 200 172 179 188 183
304 294 301 305 311 317 308 306 320 330 332 344 7 18 4 356 339 333 333 335 333 334 333 325 315 202 183 182 205 204 192 176 164 172 180 172 172 172 172 191 178 194 208 195
333 312 318 318 311 292 292 309 306 302 304 308 43 43 10 349 335 340 346 344 340 343 337 324 307 306 141 156 266 244 150 160 158 161 165 173 184 166 172 198 188 196 217 213
334 323 323 319 320 315 346 1 353 11 27 48 46 27 357 352 357 7 4 359 356 354 1 3 12 26 40 70 68 52 48 76 139 150 156 155 168 159 174 202 215 197 193 216
333 329 326 319 322 317 43 17 25 36 35 41 41 15 357 359 5 20 11 6 9 17 24 26 29 32 41 48 53 67 53 45 58 83 113 127 144 151 161 198 238 225 192 204
341 340 333 321 341 43 28 354 0 22 42 30 20 11 3 353 354 41 19 11 14 21 26 24 28 33 34 37 41 54 56 46 42 40 40 53 48 55 146 212 241 236 221 209
3 348 341 344 357 56 359 348 336 322 40 21 8 2 360 353 358 20 8 3 11 17 18 17 25 36 34 30 30 43 52 47 40 29 23 25 19 9 346 280 268 258 247 232
8 12 12 2 10 25 337 328 323 299 43 5 355 354 356 359 3 345 341 348 7 15 14 21 28 34 33 30 36 47 47 45 38 25 19 18 13 360 346 333 308 290 275 258
360 6 17 16 41 64 324 337 353 40 339 329 338 343 347 349 332 319 328 340 359 22 19 27 38 33 28 35 50 51 45 42 35 24 18 12 6 350 4 359 343 328 309 296
9 4 9 4 22 17 2 3 19 345 318 322 329 331 332 328 325 326 329 329 349 39 36 29 39 40 33 34 57 65 39 22 36 29 19 13 9 10 26 21 4 350 339 314
36 16 355 358 13 2 356 12 5 342 327 324 322 321 323 323 326 327 327 328 341 68 61 33 34 78 69 50 47 58 39 356 18 41 29 26 27 37 32 20 13 2 355 342
25 6 342 342 16 359 18 9 357 345 328 319 317 316 318 320 322 324 326 326 331 105 106 282 283 133 106 97 83 63 9 332 349 57 53 57 46 41 43 33 21 16 16 8
324 326 320 320 9 351 351 354 343 335 329 325 322 318 317 317 319 322 324 324 324 317 143 248 296 314 124 123 110 93 22 335 341 38 62 75 69 57 56 61 39 18 40 33
192 338 329 340 1 336 328 337 338 333 330 328 322 319 318 317 317 321 322 321 319 308 170 189 256 287 330 98 101 110 81 333 1 45 44 53 80 74 73 105 94 52 53 52